Regional Weather Roundup
Issued by NWS Charleston, SC

Current Version | Previous Version | Text Only | Print | Product List | Glossary Off
Versions: 1 2 3 4 5 6 7 8 9 10 11 12 13 14 15 16 17 18 19 20 21 22 23 24 25 26 27 28 29 30 31 32 33 34 35 36 37 38 39 40 41 42 43 44 45 46 47 48 49 50

000
ASUS42 KCHS 281927
RWRCHS

REGIONAL WEATHER ROUNDUP
NATIONAL WEATHER SERVICE CHARLESTON SC
300 PM EDT WED JUN 28 2017

NOTE: "FAIR" INDICATES FEW OR NO CLOUDS BELOW 12,000 FEET WITH NO
SIGNIFICANT WEATHER AND/OR OBSTRUCTIONS TO VISIBILITY.

NOT ALL STATIONS ARE QUALITY CONTROLLED. USE DATA WITH CAUTION...
ESPECIALLY DEWPOINT OBSERVATIONS.

SCZ027-030-031-034>040-042>050-282000-
...SOUTHEAST SOUTH CAROLINA...

CITY           SKY/WX    TMP DP  RH WIND       PRES   REMARKS
N CHARLESTON   CLOUDY    86  62  44 E13       30.15F
WATERFRONT PRK   N/A     82  69  64 E15       30.14F
JOHNS ISLAND   MOCLDY    82  68  61 NE12G18   30.15F
PINOPOLIS        N/A     82  63  51 E5        30.10F
MONCKS CORNER  FAIR      84  55  37 E7        30.15F
SUMMERVILLE    FAIR      86  61  42 E6        30.16S
BEAUFORT MCAS  CLOUDY    83  70  64 E9        30.14F
BEAUFORT ARPT  FAIR      81  70  69 E10G16    30.14S HAZE
HILTON HEAD IS MOSUNNY   84  72  65 NE9G17    30.15F
WALTERBORO     PTCLDY    86  64  48 E8        30.15S
ALLENDALE      FAIR      86  64  48 VRB5      30.13F

...SOUTHERN MIDLANDS AND PEE DEE...

CITY           SKY/WX    TMP DP  RH WIND       PRES   REMARKS
GEORGETOWN     FAIR      82  57  42 E9        30.17F
KINGSTREE      FAIR      84  50  30 E3        30.16F
ORANGEBURG     SUNNY     85  59  41 VRB7      30.16F
BARNWELL       FAIR      88  64  45 VRB7      30.15S
AIKEN          MOCLDY    82  57  42 E6        30.18F
MANNING        FAIR      86  61  42 SE10G23   30.16S
COLUMBIA       MOSUNNY   86  56  35 E7        30.15F
SUMTER         MOSUNNY   87  55  33 N3        30.14F
FLORENCE       SUNNY     86  54  33 NE10      30.17F
MYRTLE BEACH   SUNNY     82  63  51 SE10      30.17F
N MYRTLE BEACH SUNNY     82  61  48 SE8       30.16F

$$

GAZ063-065-086>088-099>101-113>116-118-119-134>141-150-282000-
...SOUTHEAST GEORGIA...

CITY           SKY/WX    TMP DP  RH WIND       PRES   REMARKS
SAVANNAH ARPT  CLOUDY    87  65  47 E14       30.13F
HUNTER AAF     MOSUNNY   86  69  57 E14       30.11F HX  90
FORT STEWART   PTSUNNY   86  65  49 SE12      30.11F
STATESBORO     PTSUNNY   86  66  52 SE7       30.13F
SYLVANIA       CLOUDY    87  69  55 SE7       30.14F HX  91
CLAXTON        FAIR      84  66  54 NE9       30.13F

...CSRA...CENTRAL AND FAR SOUTHEAST GEORGIA...

CITY           SKY/WX    TMP DP  RH WIND       PRES   REMARKS
THOMSON        MOSUNNY   86  63  46 S8        30.19S
AUGUSTA-BUSH   PTSUNNY   89  63  41 E7        30.13F HX  90
AUGUSTA-DANIEL MOSUNNY   88  59  37 SE10      30.15F
SWAINSBORO     FAIR      86  64  48 SE9       30.13F
VIDALIA        MOSUNNY   86  68  54 SE8       30.13F
EASTMAN        MOCLDY    87  52  29 SE9       30.14F
HAZLEHURST     FAIR      87  70  57 SE6       30.10F HX  92
ALMA           MOSUNNY   84  69  60 E9        30.11F
WAYCROSS       MOSUNNY   88  70  55 E14G21    30.11F HX  93
JESUP          FAIR      88  63  42 E8G17     30.11F
BAXLEY         FAIR      88  73  62 E12G17    30.10F HX  96
BRUNSWICK      CLOUDY    82  72  69 E15G22    30.13S
SAINT SIMONS   CLOUDY    84  71  65 NE15      30.12F

$$

SCZ027-028-034-036>038-045-046-048>050-GAZ119-141-282000-
...LAKE AND SUPPLEMENTAL COASTAL OBSERVATIONS...

STATION/POSITION TIME  TEMP    WIND        PRES    WAVE   SWELL
                       AIR SEA DIR/SP/G            HT/PER HT/PER/DIR
                 (UTC) (F)     (DEG/KT/KT) (MB)    (FT/S) (FT/S/D)
WINYAH BAY       1845   79      80/ 10     1021.0F
LAKE MURRAY      1850   84     180/  7/ 10 1020.3F
ACE BASIN NERRS  1845   84      90/  5     1021.0F
FORT PULASKI     1900   81 83  100/ 15/ 18 1020.9
SAPELO ISLAND    1900   83      70/ 10     1020.0

$$

ANZ835-935-AMZ111-154-330-350-352-354-370-450-454-472-282000-
...C-MAN AND BUOY OBSERVATIONS...

STATION/POSITION TIME  TEMP    WIND        PRES    WAVE   SWELL
                       AIR SEA DIR/SP/G            HT/PER HT/PER/DIR
                 (UTC) (F)     (DEG/KT/KT) (MB)    (FT/S) (FT/S/D)
BUOY 41004       1840   80 80   60/ 16/ 19 1020.3F
BUOY 41008       1850   81 82   60/ 16/ 17 1019.7F   3/ 5
FOLLY BEACH CMAN 1900   81      70/ 13/ 16 1021.6F
CAPERS NEARSHORE 1908   85 83   70/ 16/ 19 1020.8F
FRIPP NEARSHORE  1908   81 83   90/ 16/ 21 1020.0F


STATION/POSITION TIME  TEMP    WIND        PRES    WAVE   SWELL
                       AIR SEA DIR/SP/G            HT/PER HT/PER/DIR
                 (UTC) (F)     (DEG/KT/KT) (MB)    (FT/S) (FT/S/D)
5E ST. MARYS GA  1900      81                N/A     3/ 4
FRYING PAN BUOY  1840   78 80   40/ 12/ 14 1021.1F
BUOY 41025       1850   77 81   30/  8/ 10 1021.7F   2/ 6   2/ 70/ 6
CAPE LOOKOUT NC  1900   79      60/ 12/ 13 1021.4F
BUOY 41002       1850   80 81   60/ 12/ 16 1019.4F   3/ 7   2/160/ 7
BUOY 41010       1840   81 84   90/ 10/ 14 1017.9R
ST AUGUSTINE FL  1900   80 80   40/  8/  9 1019.0F


$$




USA.gov is the U.S. government's official web portal to all federal, state and local government web resources and services.